FW1654 Weather Reports


Display with metric or nautical units.
time (UTC)temp
F
wind
direction
speed
MPH
gust
MPH
rain 1hr
in
rain 24hr
in
rain mn
in
humidity
%
barometer
mb
20260502214624 57 22 3.0 9.0 0.00 0.00 0.00 43 1016.5
20260502214123 58 355 3.0 10.0 0.00 0.00 0.00 41 1016.2
20260502213623 58 310 3.0 10.0 0.00 0.00 0.00 42 1016.2
20260502213119 58 355 3.0 10.0 0.00 0.00 0.00 41 1016.2
20260502212618 59 206 3.0 10.0 0.00 0.00 0.00 39 1016.1
20260502212334 59 351 3.0 7.0 0.00 0.00 0.00 39 1016.1
20260502211838 60 114 3.0 7.0 0.00 0.00 0.00 38 1016.1
20260502211337 60 12 3.0 7.0 0.00 0.00 0.00 39 1016.1
20260502210615 59 309 3.0 8.0 0.00 0.00 0.00 40 1016.1
20260502210115 58 356 3.0 9.0 0.00 0.00 0.00 39 1016.1
20260502205616 58 216 2.0 9.0 0.00 0.00 0.00 39 1015.9
20260502205116 58 278 2.0 6.0 0.00 0.00 0.00 42 1015.9
20260502204615 58 356 2.0 6.0 0.00 0.00 0.00 42 1015.9
20260502204338 58 251 2.0 8.0 0.00 0.00 0.00 41 1015.9
20260502203613 59 349 3.0 8.0 0.00 0.00 0.00 41 1015.9
20260502203110 59 294 3.0 8.0 0.00 0.00 0.00 40 1015.9
20260502202603 59 2 3.0 8.0 0.00 0.00 0.00 39 1016.1
20260502202324 60 333 3.0 10.0 0.00 0.00 0.00 38 1016.1
20260502201604 60 172 3.0 10.0 0.00 0.00 0.00 38 1016.1
20260502201103 61 30 3.0 7.0 0.00 0.00 0.00 37 1016.2
20260502200823 60 213 3.0 5.0 0.00 0.00 0.00 42 1016.2
20260502195601 59 257 4.0 9.0 0.00 0.00 0.00 41 1016.2
20260502195058 59 87 4.0 11.0 0.00 0.00 0.00 40 1016.2
20260502194556 59 306 2.0 11.0 0.00 0.00 0.00 38 1016.2
20260502194055 59 12 2.0 6.0 0.00 0.00 0.00 39 1016.2
20260502193817 59 301 2.0 6.0 0.00 0.00 0.00 39 1016.2
20260502193053 59 30 2.0 6.0 0.00 0.00 0.00 41 1016.2
20260502192551 59 273 4.0 6.0 0.00 0.00 0.00 40 1016.3
20260502192051 59 234 4.0 9.0 0.00 0.00 0.00 38 1016.3
20260502191550 59 320 3.0 9.0 0.00 0.00 0.00 40 1016.3
20260502191305 59 280 3.0 9.0 0.00 0.00 0.00 39 1016.4
20260502190546 59 4 4.0 9.0 0.00 0.00 0.00 37 1016.4
20260502190303 59 206 4.0 8.0 0.00 0.00 0.00 41 1016.4
20260502185758 60 6 4.0 9.0 0.00 0.00 0.00 37 1016.4
20260502185636 60 25 4.0 8.0 0.00 0.00 0.00 39 1016.4
20260502184546 60 273 3.0 9.0 0.00 0.00 0.00 39 1016.4
20260502184046 59 301 3.0 8.0 0.00 0.00 0.00 40 1016.3
20260502183543 59 28 4.0 8.0 0.00 0.00 0.00 36 1016.3
20260502183043 59 327 4.0 6.0 0.00 0.00 0.00 41 1016.3
20260502182543 59 339 2.0 6.0 0.00 0.00 0.00 38 1016.4
20260502182041 60 248 2.0 6.0 0.00 0.00 0.00 36 1016.4
20260502181801 60 325 3.0 7.0 0.00 0.00 0.00 39 1016.4
20260502181040 60 345 3.0 7.0 0.00 0.00 0.00 35 1016.5
20260502180536 60 352 3.0 7.0 0.00 0.00 0.00 39 1016.5
20260502164035 57 239 3.0 8.0 0.00 0.00 0.00 42 1017.5
20260502163756 57 199 2.0 9.0 0.00 0.00 0.00 42 1017.5
20260502163035 57 352 2.0 9.0 0.00 0.00 0.00 40 1017.5
20260502162536 57 342 3.0 8.0 0.00 0.00 0.00 45 1017.6
20260502162036 56 218 3.0 6.0 0.00 0.00 0.00 45 1017.6
20260502161753 56 269 2.0 6.0 0.00 0.00 0.00 49 1017.6
20260502161033 56 231 2.0 6.0 0.00 0.00 0.00 45 1017.7
20260502160530 56 188 3.0 6.0 0.00 0.00 0.00 45 1017.7
20260502152235 55 354 2.0 6.0 0.00 0.00 0.00 45 1017.9
20260502151516 54 61 2.0 6.0 0.00 0.00 0.00 48 1017.9
20260502151455 54 74 2.0 5.0 0.00 0.00 0.00 48 1018.0
20260502150835 54 255 2.0 5.0 0.00 0.00 0.00 50 1018.0
20260502150726 53 269 2.0 7.0 0.00 0.00 0.00 49 1018.0
20260502130415 49 76 2.0 6.0 0.00 0.00 0.00 59 1018.1
20260502130409 49 190 2.0 6.0 0.00 0.00 0.00 58 1018.1
20260502123404 48 311 0.0 1.0 0.00 0.00 0.00 65 1018.0
20260502122905 48 27 0.0 0.0 0.00 0.00 0.00 65 1018.0
20260502122355 48 27 0.0 0.0 0.00 0.00 0.00 65 1017.7
20260502121858 48 27 0.0 0.0 0.00 0.00 0.00 66 1017.7
20260502121354 48 27 0.0 0.0 0.00 0.00 0.00 67 1017.7
20260502120850 48 27 0.0 0.0 0.00 0.00 0.00 67 1017.7
20260502120336 48 27 0.0 0.0 0.00 0.00 0.00 67 1017.7
20260502115839 47 27 0.0 0.0 0.00 0.00 0.00 69 1017.7
20260502115335 47 27 0.0 0.0 0.00 0.00 0.00 68 1017.5
20260502114831 47 27 0.0 0.0 0.00 0.00 0.00 67 1017.5
20260502114331 47 27 0.0 0.0 0.00 0.00 0.00 67 1017.5
20260502113827 47 27 0.0 0.0 0.00 0.00 0.00 69 1017.6
20260502113548 47 27 0.0 2.0 0.00 0.00 0.00 67 1017.6
20260502112820 47 27 0.0 2.0 0.00 0.00 0.00 66 1017.6
20260502112308 47 27 0.0 2.0 0.00 0.00 0.00 66 1017.5
20260502111809 47 27 0.0 2.0 0.00 0.00 0.00 66 1017.5
20260502111524 47 27 0.0 0.0 0.00 0.00 0.00 66 1017.5
20260502110803 47 27 0.0 0.0 0.00 0.00 0.00 65 1017.5
20260502110252 47 27 0.0 1.0 0.00 0.00 0.00 65 1017.5
20260502105745 48 27 0.0 2.0 0.00 0.00 0.00 65 1017.5
20260502105243 48 27 0.0 2.0 0.00 0.00 0.00 65 1017.3
20260502104730 48 27 0.0 4.0 0.00 0.00 0.00 65 1017.3
20260502104159 48 27 0.0 4.0 0.00 0.00 0.00 64 1017.3
20260502103655 48 68 0.0 0.0 0.00 0.00 0.00 64 1017.2
20260502103155 48 67 0.0 0.0 0.00 0.00 0.00 65 1017.2
20260502102911 48 68 0.0 0.0 0.00 0.00 0.00 64 1017.2
20260502102153 48 68 0.0 5.0 0.00 0.00 0.00 66 1017.2
20260502101644 48 67 0.0 5.0 0.00 0.00 0.00 66 1017.2
20260502101621 48 256 0.0 3.0 0.00 0.00 0.00 67 1017.2
20260502100638 48 331 0.0 3.0 0.00 0.00 0.00 68 1017.2
20260502100136 49 331 0.0 4.0 0.00 0.00 0.00 68 1017.2
20260502091253 49 37 0.0 4.0 0.00 0.00 0.00 68 1017.6
20260502090535 49 22 0.0 4.0 0.00 0.00 0.00 68 1017.6
20260502071345 51 31 1.0 3.0 0.00 0.00 0.00 65 1017.3
20260502070809 51 31 1.0 3.0 0.00 0.00 0.00 64 1017.4
20260502070309 51 31 1.0 2.0 0.00 0.00 0.00 65 1017.4
20260502065803 52 31 2.0 2.0 0.00 0.00 0.00 65 1017.4
20260502065306 52 31 2.0 5.0 0.00 0.00 0.00 64 1017.3
20260502064744 52 30 1.0 5.0 0.00 0.00 0.00 64 1017.3
20260502064245 52 72 1.0 3.0 0.00 0.00 0.00 65 1017.3
20260502063744 52 70 1.0 2.0 0.00 0.00 0.00 65 1017.1
20260502063237 52 70 1.0 3.0 0.00 0.00 0.00 65 1017.1
20260502062735 53 70 2.0 3.0 0.00 0.00 0.00 65 1017.1
20260502062233 53 70 2.0 3.0 0.00 0.00 0.00 65 1017.2
20260502062000 53 71 2.0 8.0 0.00 0.00 0.00 65 1017.2
20260502061236 53 70 2.0 8.0 0.00 0.00 0.00 64 1017.2
20260502060947 53 186 2.0 3.0 0.00 0.00 0.00 65 1017.4
20260502060225 53 145 2.0 4.0 0.00 0.00 0.00 64 1017.4
20260502055722 53 146 2.0 4.0 0.00 0.00 0.00 64 1017.4
20260502055220 53 31 2.0 4.0 0.00 0.00 0.00 64 1017.3
20260502054720 53 68 2.0 4.0 0.00 0.00 0.00 64 1017.3
20260502054218 53 74 2.0 5.0 0.00 0.00 0.00 64 1017.3
20260502053716 54 74 2.0 5.0 0.00 0.00 0.00 64 1017.5
20260502053212 54 354 2.0 5.0 0.00 0.00 0.00 64 1017.5
20260502052711 54 333 2.0 7.0 0.00 0.00 0.00 64 1017.5
20260502052206 54 333 2.0 7.0 0.00 0.00 0.00 64 1017.3
20260502051705 54 200 2.0 6.0 0.00 0.00 0.00 63 1017.3
20260502051205 54 334 2.0 6.0 0.00 0.00 0.00 63 1017.3
20260502050705 54 344 2.0 4.0 0.00 0.00 0.00 63 1017.1
20260502050208 54 11 2.0 5.0 0.00 0.00 0.00 62 1017.1
20260502045702 54 11 3.0 9.0 0.00 0.00 0.00 62 1017.1
20260502045640 55 339 3.0 9.0 0.00 0.00 0.00 62 1016.9
20260502044921 55 302 3.0 7.0 0.00 0.00 0.00 62 1016.9
20260502044152 55 74 3.0 7.0 0.00 0.00 0.00 62 1016.8
20260502043653 55 258 1.0 6.0 0.00 0.00 0.00 62 1016.8
20260502043150 55 345 1.0 4.0 0.00 0.00 0.00 63 1016.8
20260502042650 55 30 0.0 3.0 0.00 0.00 0.00 66 1016.7
20260502042145 55 49 0.0 3.0 0.00 0.00 0.00 65 1016.7
20260502041639 55 178 0.0 4.0 0.00 0.00 0.00 65 1016.7
20260502041342 55 178 0.0 4.0 0.00 0.00 0.00 64 1016.7
20260502040609 55 275 0.0 2.0 0.00 0.00 0.00 64 1016.7
20260502040042 55 275 0.0 2.0 0.00 0.00 0.00 64 1016.7
20260502035458 55 275 0.0 2.0 0.00 0.00 0.00 64 1016.8
20260502035208 56 275 0.0 2.0 0.00 0.00 0.00 63 1016.8
20260502034441 56 275 1.0 3.0 0.00 0.00 0.00 64 1016.8
20260502033930 56 275 1.0 3.0 0.00 0.00 0.00 63 1016.6
20260502033427 56 275 2.0 5.0 0.00 0.00 0.00 63 1016.6
20260502032927 56 195 2.0 5.0 0.00 0.00 0.00 63 1016.6
20260502032407 56 286 2.0 5.0 0.00 0.00 0.00 63 1016.6
20260502032129 56 2 2.0 5.0 0.00 0.00 0.00 63 1016.6
20260502031407 56 275 1.0 4.0 0.00 0.00 0.00 64 1016.6
20260502030858 56 297 1.0 3.0 0.00 0.00 0.00 64 1016.7
20260502030355 56 299 2.0 4.0 0.00 0.00 0.00 64 1016.7
20260502030114 57 299 2.0 4.0 0.00 0.00 0.00 64 1016.7
20260502025354 57 300 2.0 4.0 0.00 0.00 0.00 65 1016.7
20260502024845 57 246 1.0 4.0 0.00 0.00 0.00 65 1016.7
20260502024340 57 338 1.0 4.0 0.00 0.00 0.00 65 1016.7
20260502023829 57 13 2.0 5.0 0.00 0.00 0.00 65 1016.7
20260502023551 58 328 2.0 5.0 0.00 0.00 0.00 64 1016.7
20260502022807 58 307 2.0 4.0 0.00 0.00 0.00 65 1016.7
20260502022306 58 307 2.0 4.0 0.00 0.00 0.00 64 1016.4
20260502022016 58 280 2.0 4.0 0.00 0.00 0.00 63 1016.4
20260502021249 58 76 2.0 5.0 0.00 0.00 0.00 63 1016.4
20260502020744 58 197 2.0 6.0 0.00 0.00 0.00 63 1016.1
20260502020243 58 20 2.0 6.0 0.00 0.00 0.00 62 1016.1
20260502015742 59 23 2.0 5.0 0.00 0.00 0.00 61 1016.1
20260502015239 59 250 2.0 6.0 0.00 0.00 0.00 61 1015.7
20260502014953 59 259 3.0 6.0 0.00 0.00 0.00 61 1015.7
20260502014232 59 277 3.0 8.0 0.00 0.00 0.00 60 1015.7
20260502013951 60 336 2.0 10.0 0.00 0.00 0.00 59 1015.4
20260502013455 60 192 2.0 10.0 0.00 0.00 0.00 58 1015.4
20260502012730 60 11 3.0 7.0 0.00 0.00 0.00 58 1015.4
20260502012230 60 22 3.0 9.0 0.00 0.00 0.00 57 1014.9
20260502011725 60 302 1.0 9.0 0.00 0.00 0.00 56 1014.9
20260502011225 60 350 1.0 5.0 0.00 0.00 0.00 54 1014.9
20260502010723 60 241 1.0 2.0 0.00 0.00 0.00 53 1014.6
20260502010222 60 241 1.0 3.0 0.00 0.00 0.00 52 1014.6
20260502005714 61 241 2.0 3.0 0.00 0.00 0.00 52 1014.6
20260502005214 61 241 2.0 4.0 0.00 0.00 0.00 51 1014.5
20260502005158 61 241 2.0 4.0 0.00 0.00 0.00 51 1014.5
20260502004210 61 337 2.0 4.0 0.00 0.00 0.00 50 1014.5
20260502003705 61 270 2.0 4.0 0.00 0.00 0.00 50 1014.3
20260502003203 61 262 2.0 4.0 0.00 0.00 0.00 51 1014.3
20260502002657 61 246 3.0 4.0 0.00 0.00 0.00 51 1014.3
20260502002155 62 267 3.0 4.0 0.00 0.00 0.00 51 1014.3
20260502001652 62 267 2.0 5.0 0.00 0.00 0.00 51 1014.3
20260502001149 62 267 2.0 5.0 0.00 0.00 0.00 50 1013.9
20260502000649 62 262 1.0 4.0 0.00 0.00 0.00 51 1013.9
20260502000145 63 263 1.0 4.0 0.00 0.00 0.00 51 1013.9
20260501235644 63 268 2.0 2.0 0.00 0.00 0.00 51 1013.8
20260501235341 63 268 2.0 4.0 0.00 0.00 0.00 51 1013.8
20260501235225 63 268 2.0 3.0 0.00 0.00 0.00 51 1013.8
20260501234353 64 268 2.0 4.0 0.00 0.00 0.00 50 1013.7
20260501233635 64 268 2.0 3.0 0.00 0.00 0.00 50 1013.7
20260501233131 64 268 2.0 4.0 0.00 0.00 0.00 50 1013.7
20260501232628 64 268 2.0 5.0 0.00 0.00 0.00 49 1013.5
20260501232343 65 257 2.0 5.0 0.00 0.00 0.00 49 1013.5
20260501231620 65 264 2.0 5.0 0.00 0.00 0.00 48 1013.5
20260501231120 65 264 2.0 6.0 0.00 0.00 0.00 46 1013.5
20260501230619 65 201 4.0 6.0 0.00 0.00 0.00 46 1013.5
20260501230120 65 200 4.0 7.0 0.00 0.00 0.00 46 1013.5
20260501225619 66 183 4.0 7.0 0.00 0.00 0.00 44 1013.8
20260501225117 66 209 4.0 8.0 0.00 0.00 0.00 45 1013.8
20260501224616 66 259 3.0 8.0 0.00 0.00 0.00 44 1013.8
20260501224117 66 203 3.0 6.0 0.00 0.00 0.00 43 1013.9
20260501223617 66 275 4.0 7.0 0.00 0.00 0.00 44 1013.9
20260501223112 66 198 4.0 8.0 0.00 0.00 0.00 44 1013.9
20260501223101 66 200 3.0 8.0 0.00 0.00 0.00 42 1013.9
20260501222110 67 186 3.0 8.0 0.00 0.00 0.00 42 1013.9
20260501221612 67 211 3.0 8.0 0.00 0.00 0.00 42 1013.9
20260501221107 67 211 3.0 7.0 0.00 0.00 0.00 41 1013.8
20260501220609 67 225 4.0 6.0 0.00 0.00 0.00 42 1013.8
20260501220107 67 198 4.0 7.0 0.00 0.00 0.00 41 1013.8
20260501215612 67 209 4.0 8.0 0.00 0.00 0.00 40 1013.9
20260501215107 67 190 4.0 8.0 0.00 0.00 0.00 38 1013.9